This is the latest recevied weather packets stored in our database for station/object IW3HBX-13. If no packets are shown the sender has not sent any weather packets the latest 10 day(s).
| Time | Temp. | Humidity | Pressure | Rain* | Wind** | Luminosity | Snow |
|---|---|---|---|---|---|---|---|
| 1777181767 | 15° C | 66% | 1016.9 hPa | 0 mm | - | 80 W/m² | - |
| 1777181407 | 14.44° C | 67% | 1016.8 hPa | 0 mm | - | 71 W/m² | - |
| 1777181047 | 14.44° C | 68% | 1016.8 hPa | 0 mm | - | 64 W/m² | - |
| 1777180689 | 13.89° C | 69% | 1016.7 hPa | 0 mm | - | 59 W/m² | - |
| 1777180327 | 13.89° C | 69% | 1016.7 hPa | 0 mm | - | 52 W/m² | - |
| 1777179967 | 13.89° C | 70% | 1016.4 hPa | 0 mm | - | 47 W/m² | - |
| 1777179247 | 13.33° C | 71% | 1016.3 hPa | 0 mm | - | 36 W/m² | - |
| 1777178887 | 13.33° C | 72% | 1016.2 hPa | 0 mm | - | 31 W/m² | - |
| 1777178528 | 12.78° C | 72% | 1016.2 hPa | 0 mm | - | 25 W/m² | - |
| 1777178170 | 12.78° C | 73% | 1016.1 hPa | 0 mm | - | 20 W/m² | - |
| 1777177807 | 12.78° C | 74% | 1016 hPa | 0 mm | - | 15 W/m² | - |
| 1777177450 | 12.22° C | 75% | 1016 hPa | 0 mm | - | 11 W/m² | - |
| 1777177087 | 12.22° C | 75% | 1016 hPa | 0 mm | - | 6 W/m² | - |
| 1777176728 | 12.22° C | 75% | 1015.9 hPa | 0 mm | - | 4 W/m² | - |
| 1777176367 | 12.22° C | 76% | 1015.8 hPa | 0 mm | - | 2 W/m² | - |
| 1777175287 | 12.22° C | 78% | 1015.6 hPa | 0 mm | - | 0 W/m² | - |
| 1777174927 | 12.22° C | 77% | 1015.7 hPa | 0 mm | - | 0 W/m² | - |
| 1777174570 | 12.22° C | 78% | 1015.6 hPa | 0 mm | - | 0 W/m² | - |
| 1777174210 | 12.22° C | 78% | 1015.5 hPa | 0 mm | - | 0 W/m² | - |
| 1777173847 | 12.22° C | 78% | 1015.5 hPa | 0 mm | - | 0 W/m² | - |
* Rain latest hour (hover to see other rain measurements)
** Current wind speed in m/s (hover to see current wind gust speed)